Location: Houston
(29.7630°N, 95.3630°W)
Time: 22:12:15
(UTC-05:00)

ISS - All Passes

Search period start: 30 September 2016 00:00
Search period end: 10 October 2016 00:00
Orbit: 400 x 410 km, 51.6° (Epoch: 01 October)

Date Brightness Start Highest point End Pass type
(mag) Time Alt. Az. Time Alt. Az. Time Alt. Az.
30 Sep - 02:54:02 10° NNW 02:56:38 21° NE 02:59:13 10° E night (unlit)
30 Sep - 04:30:21 10° WNW 04:33:02 23° SW 04:35:45 10° S night (unlit)
30 Sep - 17:55:45 10° SE 17:56:09 10° SE 17:56:33 10° ESE daylight
30 Sep - 19:29:11 10° WSW 19:32:16 43° NW 19:35:24 10° NNE visible
01 Oct - 02:03:03 10° NNE 02:04:20 12° NE 02:05:37 10° ENE night (unlit)
01 Oct - 03:37:50 10° NW 03:41:03 56° SW 03:44:16 10° SSE night (unlit)
01 Oct - 18:36:57 10° SW 18:40:11 77° SE 18:43:26 10° NE daylight
02 Oct - 02:45:44 10° NW 02:48:58 58° NE 02:52:12 10° SE night (unlit)
02 Oct - 17:45:15 10° SSW 17:48:09 30° SE 17:51:03 10° ENE daylight
02 Oct - 19:22:27 10° W 19:24:40 17° NW 19:26:52 10° N visible
03 Oct - 01:53:57 10° NNW 01:56:47 27° NE 01:59:38 10° E night (unlit)
03 Oct - 03:30:49 10° W 03:33:06 18° SW 03:35:24 10° S night (unlit)
03 Oct - 16:54:25 10° SSE 16:56:10 14° SE 16:57:56 10° E daylight
03 Oct - 18:29:27 10° WSW 18:32:24 32° NW 18:35:22 10° NNE daylight
04 Oct - 01:02:36 10° N 01:04:30 14° NE 01:06:25 10° ENE night (unlit)
04 Oct - 02:38:00 10° WNW 02:41:06 39° SW 02:44:11 10° SSE night (unlit)
04 Oct - 17:37:00 10° SW 17:40:13 76° NW 17:43:27 10° NE daylight
05 Oct - 01:45:44 10° NW 01:49:01 82° NE 01:52:17 10° SE night (unlit)
05 Oct - 16:45:03 10° SSW 16:48:07 42° SE 16:51:13 10° ENE daylight
05 Oct - 18:23:01 10° WNW 18:24:45 14° NW 18:26:29 10° N daylight
06 Oct - 00:53:48 10° NNW 00:56:50 34° NE 00:59:51 10° ESE night (unlit)
06 Oct - 02:31:24 10° W 02:33:02 13° SW 02:34:40 10° SSW night (unlit)
06 Oct - 15:53:46 10° S 15:56:06 18° SE 15:58:26 10° E daylight
06 Oct - 17:29:40 10° W 17:32:25 25° NW 17:35:10 10° NNE daylight
07 Oct - 00:02:13 10° N 00:04:32 18° NE 00:06:52 10° E night (unlit)
07 Oct - 01:38:08 10° WNW 01:41:02 29° SW 01:43:54 10° S night (unlit)
07 Oct - 16:36:59 10° WSW 16:40:10 54° NW 16:43:22 10° NE daylight
08 Oct - 00:45:40 10° NW 00:48:56 72° SW 00:52:11 10° SE night (unlit)
08 Oct - 15:44:49 10° SSW 15:48:00 60° SE 15:51:12 10° NE daylight
08 Oct - 17:23:45 10° NW 17:24:44 11° NW 17:25:44 10° NNW daylight
08 Oct - 23:53:35 10° NNW 23:56:45 46° NE 23:59:54 10° ESE night (unlit)
09 Oct - 14:53:12 10° S 14:55:54 24° SE 14:58:37 10° ENE daylight
09 Oct - 16:29:52 10° W 16:32:19 20° NW 16:34:48 10° N daylight
09 Oct - 23:01:48 10° NNW 23:04:27 22° NE 23:07:05 10° E night (unlit)
